Location: Newark
(55.7083°N, 13.1992°E)
Time: 21:43:58
(UTC+00:00)

Envisat - Pass Details

Date: 06 October 2022
Orbit: 763 x 765 km, 98.2° (Epoch: 08 December)

Event Time Altitude Azimuth Distance (km) Brightness Sun altitude
Rises 02:03:52 0° 25° (NNE) 3,248 7.2 -27.1°
Reaches altitude 10° 02:07:07 10° 47° (NE) 2,316 6.5 -26.7°
Maximum altitude 02:10:13 16° 85° (E) 1,923 5.7 -26.3°
Drops below altitude 10° 02:13:19 10° 122° (ESE) 2,305 5.7 -26.0°
Sets 02:16:31 0° 144° (SE) 3,225 6.3 -25.6°
